Wind_Speed
29 30 31 32 32 31 31 30 31 31 32 31 30 30 29 29 30 30 31 31 30 30 29 28 26 25 24 23 22 20 20 19 19 19 19 18 18 18 19 18 18 17 17 16 15 14 13 13 13 12 12 11 10 9 7 7 7 7 7 7 7 7 7 6 5 6 8 11 12 12 13 14 15 16 18 19 21 23 24 24 26 27 28 29 30
29 29 30 30 31 31 31 31 31 31 32 32 30 30 29 30 30 31 31 31 31 31 30 29 28 26 25 24 23 21 21 20 19 19 19 18 17 18 19 20 19 19 19 18 17 17 16 15 15 15 14 13 12 11 10 9 9 9 9 9 9 9 10 10 9 9 9 12 14 15 17 19 20 20 22 23 25 27 28 28 29 31 31 32 33
29 28 29 29 29 30 31 32 32 32 32 32 31 30 30 30 30 31 31 31 31 31 31 30 29 27 27 25 24 22 21 20 20 20 18 17 17 18 20 20 21 20 20 19 19 19 18 17 17 17 17 16 15 14 13 12 12 12 12 11 12 13 13 13 14 13 12 13 15 17 19 21 23 23 25 27 28 30 32 32 33 34 34 34 35
30 29 28 28 29 30 31 32 32 32 32 32 31 30 30 29 29 30 31 31 31 31 31 30 29 28 27 26 24 23 21 21 21 20 19 18 18 18 20 21 21 21 21 20 20 20 19 18 18 19 18 17 17 16 15 14 14 15 14 14 15 16 17 17 17 18 18 17 17 19 21 23 24 25 27 29 30 31 32 33 33 34 35 35 36
32 30 29 29 30 30 31 31 32 32 32 32 31 31 30 30 29 30 31 31 31 30 30 30 29 28 27 26 24 23 22 21 21 21 20 19 19 19 20 21 22 22 22 21 21 20 20 19 19 19 20 18 18 17 17 16 16 17 17 17 18 18 20 21 21 21 22 21 20 21 22 24 25 25 27 29 30 31 31 32 33 33 34 35 36
33 32 31 30 30 30 31 32 32 31 32 32 32 32 31 31 29 29 30 30 30 30 30 29 28 27 26 26 25 23 23 22 21 21 21 20 20 20 21 22 22 23 22 22 21 21 20 19 19 19 20 19 18 18 18 18 18 18 18 19 20 20 21 22 23 23 24 24 23 22 22 23 24 24 25 26 27 28 29 31 33 34 34 35 35
33 32 31 31 31 31 31 32 32 31 31 31 32 32 32 32 30 29 29 30 30 29 29 29 28 28 27 27 26 25 24 23 22 22 22 22 20 21 22 22 23 23 23 22 21 21 20 19 18 19 19 18 18 18 18 18 18 17 17 18 19 20 21 21 22 23 23 23 22 22 21 21 22 22 24 25 26 26 28 30 32 32 34 36 37
33 32 32 32 31 30 30 31 31 30 30 31 31 32 33 32 31 30 30 30 29 29 29 29 29 29 28 28 27 26 25 24 24 23 23 23 21 21 22 23 23 23 22 21 21 21 19 19 18 18 18 17 17 17 17 16 16 15 16 17 18 19 20 20 21 22 22 21 21 21 21 20 21 22 24 25 26 27 29 32 33 34 35 37 40
34 33 32 32 31 30 30 31 31 31 31 31 31 31 32 32 32 31 30 30 29 28 28 28 28 29 29 29 29 28 27 26 25 23 23 23 22 21 22 23 24 23 23 22 22 21 19 19 18 18 17 17 17 16 15 14 14 15 15 17 18 19 20 20 21 21 21 21 20 21 22 22 23 25 27 28 29 31 32 34 36 37 37 39 41
34 33 32 31 31 30 29 30 31 31 31 30 30 30 30 31 32 31 31 31 30 29 28 28 28 28 28 29 29 29 28 27 25 23 23 22 22 22 22 24 25 24 24 23 23 21 20 19 19 18 18 17 16 15 15 14 15 15 16 18 20 21 21 21 21 21 22 22 21 22 24 25 26 28 31 32 33 35 36 37 38 39 40 40 39
34 33 32 31 31 30 29 29 30 31 31 30 29 29 29 30 31 31 31 31 31 31 29 29 28 27 27 28 28 28 28 27 25 24 23 23 23 23 22 24 25 25 25 24 23 22 21 20 20 19 18 18 17 16 15 16 16 17 18 20 22 22 22 22 21 21 21 22 23 24 25 27 29 31 33 35 35 37 38 39 40 40 41 41 37
34 34 33 32 31 30 28 28 28 30 31 31 30 29 29 29 29 29 29 30 31 31 30 30 29 28 28 28 27 27 27 26 25 24 24 23 23 23 23 24 26 26 26 25 24 23 22 22 21 21 20 19 18 17 17 18 19 19 21 22 23 23 23 22 21 21 21 23 25 26 27 29 31 33 35 37 37 38 39 40 41 41 41 40 36
35 35 33 31 31 30 29 28 28 28 30 30 30 30 30 29 28 28 28 28 29 30 30 30 29 29 28 28 27 26 25 24 24 24 24 24 24 24 24 24 26 27 27 27 26 25 24 24 23 22 21 20 20 20 20 20 21 22 23 24 23 22 22 22 21 22 23 25 27 28 30 32 35 36 37 38 39 39 40 40 41 40 39 37 35
36 36 33 30 28 29 30 29 28 28 28 29 30 31 30 30 29 28 28 28 28 29 29 29 29 29 29 28 26 25 24 23 22 23 23 24 24 25 24 25 26 28 29 28 28 27 26 26 25 24 23 23 23 22 22 22 23 24 24 24 23 22 21 22 22 24 25 27 29 31 33 36 38 40 40 40 40 40 40 40 39 37 34 34 34
37 36 33 29 27 28 29 30 29 29 28 28 29 30 30 30 30 29 29 29 28 28 29 29 29 29 29 28 27 25 24 22 21 22 23 23 24 25 26 26 27 28 30 30 30 29 29 28 27 26 25 25 24 24 23 24 25 26 25 24 23 22 22 23 24 25 26 29 31 34 37 39 41 42 41 40 40 39 39 38 36 34 32 32 33
38 36 33 30 28 29 29 29 29 29 29 29 29 29 30 31 31 30 30 30 30 29 29 29 29 29 29 28 27 26 24 22 21 21 23 23 24 25 26 27 28 29 30 30 31 31 30 30 29 28 27 27 26 25 24 25 27 27 26 24 24 23 24 24 24 25 27 30 34 37 39 41 42 42 41 40 38 38 38 37 35 33 33 33 33
38 36 33 31 30 30 31 31 30 29 28 28 29 30 30 31 31 31 30 30 31 30 29 29 29 29 28 28 28 26 24 23 22 22 23 25 25 26 26 28 29 29 29 30 31 31 31 31 31 30 29 28 27 26 26 27 28 28 27 26 25 25 25 26 26 27 29 32 35 38 40 41 40 40 39 38 37 37 37 36 34 33 34 35 35
38 35 33 33 31 32 33 32 31 30 28 27 28 29 29 30 30 30 31 31 31 30 29 29 29 29 28 29 29 27 25 25 24 24 25 26 27 27 27 28 29 29 29 30 31 32 32 32 32 31 30 29 27 26 27 28 29 29 28 27 27 27 27 27 28 30 33 35 36 38 39 39 38 36 36 36 36 36 36 34 32 32 34 35 37
37 35 34 34 33 33 33 33 32 31 29 28 28 29 29 29 29 30 31 31 31 30 29 29 29 29 29 30 29 28 27 27 27 26 27 28 28 29 29 29 30 29 29 29 30 31 32 32 32 31 30 29 28 27 28 29 30 30 29 28 28 28 28 29 31 33 35 37 39 40 40 38 36 35 35 36 36 36 33 31 30 32 33 35 37
36 35 35 35 34 33 33 33 32 31 30 28 29 30 30 30 29 30 30 30 30 29 29 28 28 29 29 29 29 28 28 29 28 28 28 29 30 31 31 32 31 30 29 29 30 31 31 31 31 31 30 30 29 28 29 30 31 31 30 30 29 30 31 32 34 35 37 39 41 41 40 38 36 36 37 37 36 34 30 29 30 32 33 36 39
36 36 35 34 33 32 33 33 34 33 31 29 29 29 28 28 28 29 29 29 29 28 28 28 28 28 28 28 29 29 29 29 29 29 29 31 32 33 34 34 33 31 31 31 31 31 31 31 31 31 30 31 31 30 30 31 32 32 31 31 31 32 34 36 37 38 39 41 42 41 39 37 36 37 37 35 33 30 28 30 31 32 34 38 41
36 36 35 34 32 32 33 33 34 34 33 32 30 29 28 27 27 27 27 27 27 27 27 26 27 27 27 28 29 29 29 29 30 29 30 32 33 34 35 35 34 33 33 33 33 33 33 32 32 31 31 32 32 32 31 32 32 32 32 32 33 35 36 38 39 40 41 42 41 40 38 37 37 37 35 31 28 26 27 29 31 32 34 37 41
35 35 35 34 33 33 33 33 33 33 33 33 32 31 30 30 29 28 28 28 28 28 27 27 27 27 27 28 28 29 29 29 29 30 30 32 34 35 35 35 35 34 34 34 34 34 34 33 33 33 33 33 33 33 32 33 33 33 34 35 36 37 38 39 40 42 42 42 40 37 36 36 37 35 32 28 26 26 27 29 31 33 34 36 39
35 34 34 34 33 33 32 32 32 33 33 33 33 33 33 32 32 31 31 32 32 31 30 30 29 29 29 29 29 29 28 28 28 29 30 31 33 34 34 35 35 35 35 35 35 35 35 35 35 34 34 34 33 33 33 34 34 35 36 37 38 39 39 41 42 43 42 39 37 36 36 36 34 31 28 26 27 27 27 29 31 33 35 36 38
34 34 34 34 34 33 32 32 32 32 33 33 34 34 34 34 34 34 34 34 34 33 33 33 32 32 31 31 30 29 28 27 28 29 29 30 31 32 33 34 35 35 35 35 35 36 36 36 36 35 34 34 34 34 34 34 36 37 38 39 40 40 41 42 42 41 39 36 34 34 34 32 29 26 25 26 27 28 28 29 31 34 36 37 39
34 35 34 33 32 32 31 31 32 32 32 32 33 33 34 34 34 34 34 34 34 34 34 34 34 33 32 32 31 29 29 29 29 29 29 29 30 31 32 33 33 34 35 35 35 36 36 35 34 33 33 33 34 34 35 36 37 38 39 40 41 42 42 41 39 37 35 33 32 32 30 27 25 24 24 26 27 28 29 30 32 34 37 39 40
35 34 32 30 29 29 29 29 29 29 29 30 31 31 32 32 32 32 32 32 33 33 33 33 33 33 33 32 31 31 30 31 31 31 31 31 31 30 31 31 32 32 33 33 34 34 34 33 32 32 33 34 34 35 36 37 38 39 41 41 41 41 40 38 36 35 32 30 30 29 27 25 24 24 25 26 27 29 30 31 33 35 37 40 42
33 30 28 27 26 26 26 26 27 27 27 27 28 28 29 29 30 29 30 30 30 30 30 30 30 30 29 29 29 29 29 30 31 32 32 31 31 32 32 32 32 32 33 32 33 33 32 32 32 33 34 35 36 37 38 39 39 40 41 40 38 37 35 33 33 32 30 30 30 28 25 24 24 25 26 26 28 30 31 32 34 36 38 41 43
30 29 27 26 26 26 26 26 27 27 27 26 26 27 27 27 27 27 27 28 28 27 27 27 27 26 26 26 26 27 27 27 28 29 29 29 30 31 32 32 32 33 33 33 33 33 33 33 34 35 36 36 37 38 38 38 38 38 37 35 34 32 31 31 31 31 31 32 30 26 24 25 25 26 26 27 29 30 31 33 35 37 40 42 44
31 30 28 27 26 26 26 27 27 26 26 25 24 23 23 23 23 24 24 24 24 25 25 25 25 25 24 25 26 27 26 26 27 27 28 28 29 28 28 29 29 30 31 31 32 32 33 34 34 35 36 36 36 36 36 36 36 34 32 32 31 29 30 32 33 33 33 32 28 25 25 26 26 27 27 28 29 31 32 34 36 38 41 43 44
31 29 28 27 26 26 26 26 25 25 24 22 20 20 21 21 21 22 22 21 21 22 23 24 25 26 26 25 26 27 27 27 27 27 27 28 28 28 27 28 28 28 29 30 30 31 31 32 32 33 33 33 33 33 32 33 32 29 29 31 32 31 32 34 35 35 34 30 26 25 26 26 27 27 28 28 30 31 33 35 37 39 41 43 45
32 30 29 27 25 25 26 25 24 23 22 20 20 21 22 22 22 22 22 22 22 23 24 25 25 26 26 26 26 26 26 26 26 26 27 28 29 30 30 30 29 30 31 31 32 33 32 31 30 30 29 28 27 26 27 29 30 28 29 32 34 34 34 35 35 33 29 26 25 26 27 27 27 28 29 29 31 32 34 36 38 39 41 43 44
33 32 30 28 27 26 26 25 24 23 22 21 21 22 22 23 24 24 24 24 24 25 26 26 26 26 26 26 25 25 24 24 25 26 26 27 28 29 30 30 30 30 30 31 31 30 28 28 28 27 25 23 22 22 24 29 31 31 30 31 32 32 32 31 30 27 25 25 26 26 27 27 28 29 30 31 32 34 35 37 38 40 41 42 44
35 31 27 28 30 29 28 27 26 24 23 22 21 22 22 23 23 24 25 26 27 27 28 28 28 28 27 26 25 25 25 24 25 24 25 25 25 26 27 26 26 26 27 25 23 22 21 21 22 22 22 23 23 23 26 30 32 31 30 30 29 29 28 26 25 24 24 25 26 27 27 28 29 30 31 32 34 35 37 38 39 41 42 42 43
34 28 23 26 30 32 31 30 27 25 24 23 23 24 25 24 24 24 26 28 28 28 29 29 29 28 27 26 26 26 25 25 24 24 24 24 24 24 24 23 22 23 23 21 19 20 23 23 21 21 24 27 28 29 31 33 32 29 28 28 27 26 24 23 23 24 25 26 27 27 28 29 30 31 32 33 34 36 37 39 40 41 42 42 42
30 27 25 27 31 32 31 29 27 25 25 25 26 26 26 26 26 27 27 27 27 28 30 30 29 28 27 27 27 26 25 25 24 24 25 25 25 24 23 22 21 23 24 23 22 22 25 26 25 25 28 31 33 34 34 32 30 28 28 27 26 24 24 24 24 25 26 27 27 28 29 30 31 32 33 34 35 36 37 39 40 40 41 41 41
32 31 33 34 33 32 30 28 26 26 26 28 29 29 28 27 27 27 27 28 28 29 30 30 29 28 27 27 27 26 26 26 26 27 27 27 27 25 23 22 23 25 27 27 25 25 26 27 29 30 31 31 31 31 31 31 31 31 29 26 25 25 25 25 25 26 27 28 28 29 30 31 32 33 34 35 36 37 37 38 39 39 40 40 40
35 36 37 36 33 31 30 28 27 27 27 28 29 29 28 27 27 27 28 29 30 30 30 30 30 30 29 29 28 27 28 29 29 29 29 30 29 27 25 25 27 29 31 30 29 30 31 30 29 29 29 27 26 27 29 30 31 30 27 25 25 26 26 26 26 26 27 29 29 30 31 32 33 34 34 35 36 37 37 37 38 38 39 39 39
36 36 35 33 32 30 30 29 27 26 26 26 26 26 26 27 27 27 28 29 30 31 32 32 32 32 31 29 29 29 30 30 29 28 29 30 30 29 27 26 26 28 31 31 31 31 30 28 26 27 27 26 26 28 28 28 28 27 26 26 26 26 27 27 27 28 29 30 30 31 32 33 33 34 35 35 36 36 36 36 36 37 37 38 37
37 34 30 28 28 28 28 29 27 25 24 24 24 24 25 25 26 26 27 28 30 31 32 32 31 30 29 29 30 30 30 29 27 25 26 28 28 27 25 24 23 25 28 31 32 31 29 27 26 27 28 28 28 28 28 28 27 27 27 26 26 27 27 28 28 29 30 31 31 32 33 34 34 34 35 35 35 35 34 35 35 36 36 36 35
38 34 27 24 25 26 28 28 27 25 24 23 23 23 24 24 24 25 26 27 28 29 30 29 28 28 28 29 30 29 28 27 25 24 24 25 25 25 25 24 24 24 26 29 30 29 28 27 28 29 29 29 29 29 28 28 27 26 26 26 27 27 28 29 29 30 31 32 32 33 33 34 34 34 34 34 34 34 34 34 35 35 35 34 33
34 32 26 22 22 23 25 26 25 24 23 24 24 24 24 24 24 25 26 27 27 28 27 26 26 26 27 29 29 29 28 26 24 24 24 24 25 26 27 26 25 25 24 25 25 26 26 27 28 29 29 29 29 28 27 26 26 26 26 27 28 29 30 30 31 31 32 32 33 33 33 33 33 33 33 34 33 34 34 34 34 33 32 32 32
23 23 23 21 20 20 21 23 23 23 24 24 24 23 24 24 25 26 27 27 27 27 25 24 25 26 27 28 29 29 27 25 24 24 25 26 27 28 28 27 26 25 25 24 24 24 24 25 25 26 27 27 26 26 25 25 26 26 27 28 29 30 31 32 32 32 33 33 33 33 33 33 32 32 33 33 34 34 35 34 34 32 30 29 29
16 17 18 19 18 18 19 21 22 23 23 23 23 23 23 22 22 23 25 24 24 24 24 24 25 26 27 29 30 29 27 26 25 25 26 26 26 26 26 26 26 26 25 24 24 23 23 23 24 25 26 26 26 26 26 26 27 28 29 30 31 31 32 33 33 33 33 33 32 32 32 32 32 33 33 34 34 34 34 33 33 32 30 28 27
13 13 15 16 16 16 17 18 19 20 21 21 22 22 22 21 22 25 25 24 22 22 24 25 26 27 27 27 28 28 27 27 26 26 26 26 25 25 25 26 26 25 24 23 23 24 24 25 25 26 26 26 26 26 27 27 28 29 30 31 32 32 32 33 33 33 32 32 32 32 33 34 34 34 34 34 33 33 32 31 31 30 29 28 26
10 9 10 11 13 14 15 15 15 16 17 18 19 19 19 20 22 24 24 22 21 22 23 25 26 28 28 28 29 29 28 27 27 26 27 27 27 27 27 27 27 26 26 26 27 27 27 27 27 27 27 27 26 27 28 28 29 30 31 31 31 32 32 32 32 32 32 32 33 33 34 34 34 34 34 33 32 31 30 29 28 27 27 27 26
9 8 8 8 9 10 11 11 12 12 13 14 15 16 16 17 19 20 21 21 22 23 24 25 26 28 29 29 30 30 29 29 28 28 28 28 29 29 29 28 27 27 28 29 29 29 28 28 27 27 27 27 27 28 29 30 30 31 31 31 31 31 31 31 32 32 32 32 33 33 34 34 33 33 32 31 30 29 29 28 27 26 27 27 26
11 10 9 9 8 9 10 11 12 12 12 12 13 14 15 16 17 19 20 22 23 24 25 25 25 26 26 27 28 28 29 29 29 29 29 29 29 29 29 29 29 29 29 29 29 29 29 28 28 28 29 29 29 30 31 31 31 31 31 31 31 31 30 31 31 31 31 32 32 32 32 32 32 31 30 30 29 29 28 28 27 27 27 27 27
15 13 12 11 11 12 12 13 14 15 15 14 14 15 16 17 18 19 20 21 21 22 23 23 24 24 26 27 27 28 29 30 30 30 30 30 30 30 29 29 29 29 29 29 29 29 29 29 29 29 30 30 31 31 31 30 30 30 29 29 30 30 30 31 31 31 31 31 31 31 30 30 29 29 29 28 28 28 28 27 28 28 28 29 29
20 19 17 16 15 15 16 16 17 18 18 18 19 19 19 20 20 20 21 21 22 23 24 24 25 25 26 27 27 28 29 30 31 32 32 32 31 30 29 29 29 29 29 28 29 29 29 30 30 30 31 31 30 30 30 29 29 29 29 29 30 30 31 31 31 31 31 31 30 30 29 28 28 27 27 27 27 27 28 28 28 29 30 30 31
23 23 23 22 20 19 19 20 21 21 21 21 22 23 22 23 23 24 25 25 26 26 27 27 27 27 27 27 27 27 27 28 29 30 31 31 30 29 29 29 29 29 29 29 29 29 30 30 30 30 30 30 30 30 30 30 30 30 30 30 31 31 31 31 30 30 30 30 30 29 28 28 28 27 28 28 28 29 29 29 29 30 30 30 31
Wind_Direction
221 222 223 223 222 221 219 218 217 217 217 218 218 218 219 218 218 218 218 220 222 224 226 226 226 225 227 231 233 236 240 243 245 247 247 245 241 238 238 237 234 231 230 229 230 230 229 232 237 241 246 249 251 253 254 256 258 260 264 268 270 271 270 263 258 262 274 286 291 295 298 300 302 303 303 305 306 306 307 308 309 309 309 309 309
219 220 221 223 223 222 221 219 219 218 218 219 219 218 218 218 218 218 218 220 222 224 226 228 228 228 230 234 236 237 239 241 244 246 247 247 243 239 237 237 236 234 231 230 230 230 229 230 235 239 242 247 251 253 254 256 259 261 263 266 269 271 271 270 268 259 256 270 282 290 294 296 299 301 302 304 305 305 306 307 307 307 307 306 305
220 220 221 222 223 222 222 221 220 219 219 220 219 218 219 219 219 219 219 220 222 225 227 229 230 230 232 235 236 237 238 240 244 246 247 247 244 239 236 234 235 234 232 231 231 230 229 230 233 237 239 243 248 251 252 255 259 262 264 265 269 274 272 270 272 270 262 261 271 280 285 288 293 297 299 301 302 302 303 304 305 306 306 305 304
222 222 222 223 223 223 223 222 220 220 220 221 220 218 219 220 220 219 219 220 222 224 227 229 231 232 233 235 236 236 238 241 245 247 247 245 243 239 235 232 232 233 233 233 232 232 231 231 233 237 239 241 245 249 251 254 258 262 265 266 268 273 274 273 275 276 276 275 277 281 284 287 292 295 296 298 298 298 299 300 301 302 303 304 304
223 224 223 223 224 224 224 224 222 221 221 222 221 219 220 221 221 220 219 221 222 224 226 228 230 232 233 236 237 239 242 244 245 247 246 244 241 239 236 233 231 231 232 233 234 234 233 232 233 236 239 241 244 248 251 254 257 261 264 267 269 271 274 277 279 280 283 285 286 287 289 291 292 293 294 295 296 298 300 301 300 300 300 301 302
223 224 224 224 225 225 224 224 224 222 221 222 221 221 221 222 222 221 221 222 223 224 226 228 230 233 235 238 240 242 246 247 246 245 245 243 240 238 237 234 232 231 232 233 234 235 234 233 233 235 238 240 243 247 249 252 255 259 263 267 269 271 274 277 281 284 287 290 292 293 293 294 295 296 295 295 296 299 301 301 301 301 302 302 303
222 224 224 225 226 226 225 225 225 223 221 222 222 221 221 222 223 222 222 223 225 225 226 229 231 234 236 239 243 245 246 247 245 243 243 243 241 238 237 235 234 233 232 233 234 234 232 231 230 232 234 237 240 243 246 249 253 257 261 265 268 273 277 280 284 287 291 294 299 300 300 300 299 300 299 298 299 300 300 300 301 303 306 307 308
222 224 225 225 227 227 226 225 225 223 222 222 222 222 222 223 224 223 223 225 226 227 228 229 232 235 237 239 242 245 245 245 244 241 241 243 242 240 237 235 234 234 233 232 231 230 229 227 227 227 228 229 231 235 240 246 251 255 261 266 271 276 280 284 288 292 295 298 301 303 303 303 304 304 303 303 304 304 303 303 305 308 309 309 310
221 223 225 226 227 227 227 226 224 222 222 222 222 223 222 223 224 224 224 225 227 228 228 229 231 234 236 238 240 242 243 243 242 241 240 242 243 242 238 235 234 234 233 230 229 227 224 222 220 219 219 219 222 227 234 242 250 257 264 270 275 279 283 287 290 292 295 296 299 302 304 308 311 311 310 309 310 309 308 308 309 311 312 312 313
220 223 226 226 226 226 226 226 223 222 222 222 222 223 222 223 224 225 225 225 227 228 229 230 231 232 234 236 237 239 241 241 242 241 240 240 241 242 239 235 234 234 231 228 226 224 219 214 213 213 214 216 220 227 235 244 253 261 268 273 277 281 284 286 288 290 292 295 301 305 308 311 314 312 310 309 309 310 310 310 311 313 314 314 314
220 223 226 226 225 224 224 225 223 221 221 222 222 222 223 223 224 226 226 226 227 229 230 231 232 233 235 236 237 238 240 241 241 240 239 237 238 240 239 234 233 232 229 224 222 219 214 210 211 214 217 220 225 232 239 248 257 263 270 275 278 281 283 284 286 288 293 298 303 305 307 310 310 308 307 307 307 308 309 309 311 313 314 313 314
218 221 224 226 224 222 221 222 221 220 220 220 221 222 223 224 224 225 226 226 227 229 231 232 233 235 236 236 237 238 239 240 239 238 238 236 235 238 238 234 232 230 226 222 218 216 214 212 214 218 222 225 230 237 244 251 259 265 269 273 276 279 281 284 287 291 295 299 302 304 306 307 307 305 305 306 307 308 309 310 312 313 313 313 314
216 218 222 225 224 221 219 219 219 219 218 219 220 221 223 224 224 225 226 226 227 228 230 231 233 234 236 236 237 238 239 239 237 235 235 234 233 236 236 233 231 229 226 221 217 217 217 217 219 222 226 229 233 240 247 253 259 264 269 272 275 276 278 281 286 291 295 298 301 304 306 306 305 304 304 306 308 309 310 312 312 312 313 313 312
213 216 219 222 223 221 219 219 218 217 216 217 218 220 222 224 224 225 226 226 226 227 228 230 231 232 234 235 235 236 237 237 234 232 232 232 232 233 235 234 231 229 227 223 220 220 220 221 223 226 229 233 236 242 249 256 262 265 268 271 273 273 274 278 283 289 294 299 302 304 305 305 304 304 306 306 307 308 309 309 309 311 312 311 310
211 214 216 217 217 218 218 218 217 216 215 215 216 217 220 222 223 224 225 226 226 226 227 229 230 231 232 233 233 233 234 234 230 228 228 230 232 232 233 233 232 230 229 227 224 224 224 225 227 228 232 236 240 245 251 258 265 268 270 271 270 269 272 277 283 289 295 300 303 304 305 305 304 304 305 305 305 306 305 305 308 309 309 308 311
209 213 214 213 213 214 215 215 216 216 216 216 216 216 218 220 221 222 224 225 226 226 226 227 228 229 230 231 231 230 230 230 227 224 225 228 232 233 234 234 234 233 232 231 230 229 228 228 230 231 234 238 242 247 253 260 264 268 271 271 271 272 275 279 285 291 295 299 301 302 303 303 302 302 303 303 303 303 303 304 307 307 306 307 313
208 212 212 212 213 214 214 215 214 214 215 215 216 217 218 219 220 221 222 224 225 224 224 226 228 229 229 230 231 229 228 228 226 223 223 227 232 234 235 236 237 236 235 234 234 234 233 232 233 235 237 239 242 247 254 259 264 268 270 271 272 274 278 284 289 293 295 296 298 299 300 299 300 300 300 300 300 301 303 304 306 305 305 308 313
208 210 211 213 214 214 215 217 216 215 215 217 218 219 219 220 220 221 222 224 225 225 224 226 228 229 229 230 230 229 228 227 226 224 224 227 231 235 237 238 238 237 236 236 236 236 236 235 236 238 238 240 243 248 253 258 262 266 269 270 271 274 279 285 290 291 293 295 298 299 299 299 300 299 296 296 297 299 301 303 303 303 304 309 314
206 208 211 214 216 217 218 219 219 219 218 219 220 221 222 222 222 222 223 224 226 225 225 226 227 228 229 229 230 229 228 227 226 224 225 227 231 234 237 239 239 239 238 237 237 237 237 236 237 239 240 242 244 248 252 255 259 263 265 267 269 273 279 283 285 287 290 294 297 299 299 300 301 300 298 297 298 298 298 298 299 301 306 311 314
203 206 211 216 219 221 221 222 222 221 219 219 220 221 222 223 222 222 223 224 226 226 225 225 226 227 228 229 229 228 228 228 226 224 226 229 231 234 237 239 239 240 239 239 239 238 237 237 238 239 242 245 247 248 250 253 257 260 262 264 268 273 277 279 280 284 289 293 295 297 298 299 299 300 300 299 297 295 295 296 299 304 309 312 313
200 204 211 216 219 220 221 222 223 222 219 217 217 217 217 218 218 219 220 222 223 224 224 223 224 225 227 228 229 228 227 227 227 225 226 229 231 234 237 238 239 240 240 240 239 239 239 239 239 240 243 246 248 249 249 252 256 259 261 264 268 272 275 277 281 285 289 293 295 296 297 297 297 298 298 295 292 292 294 298 302 307 311 313 314
200 206 212 215 217 218 220 222 223 223 221 218 216 214 213 212 213 213 215 217 218 219 220 221 221 222 224 226 227 227 226 226 227 226 226 228 231 233 236 238 239 239 239 239 239 239 239 240 241 242 244 246 249 251 252 254 258 261 264 266 269 272 275 279 283 287 290 292 294 294 295 295 295 295 294 289 286 289 294 299 303 306 309 312 314
203 208 212 215 217 219 221 222 223 223 223 221 220 219 217 217 217 216 216 218 219 219 220 221 221 222 223 224 226 226 225 225 226 227 226 228 231 233 236 238 238 238 239 239 239 239 240 241 242 243 244 247 250 253 256 258 261 264 266 268 271 274 278 282 285 288 290 291 292 292 292 292 293 293 289 285 285 289 294 298 301 304 306 309 311
206 209 211 214 216 219 221 223 224 224 225 224 224 224 223 223 223 223 223 225 225 225 224 225 225 224 224 224 225 226 225 224 225 226 227 228 230 232 235 238 239 239 240 240 240 241 241 242 243 244 246 249 252 255 258 260 263 266 269 271 274 277 280 284 286 287 288 289 289 290 290 291 291 287 283 283 286 289 293 297 299 302 303 306 310
205 208 210 213 215 218 221 223 224 225 226 226 227 228 227 227 227 227 227 227 227 227 227 226 226 226 225 226 226 227 226 225 225 226 227 228 230 232 234 237 239 240 241 242 242 243 243 244 246 248 250 253 255 258 260 263 266 268 271 274 277 280 282 284 285 285 286 287 288 289 291 290 285 279 278 282 286 289 293 296 298 300 302 306 309
204 207 209 212 214 216 219 222 224 225 226 227 229 229 230 230 230 229 229 229 229 229 229 229 229 228 228 228 228 229 229 228 227 228 228 229 230 231 233 236 238 241 242 243 244 245 246 248 250 253 256 258 260 262 264 266 269 272 275 278 280 281 282 282 282 282 283 286 289 290 288 283 277 276 279 283 287 291 295 296 297 299 302 306 309
205 207 208 210 212 213 216 219 222 224 225 226 228 229 229 230 229 229 229 229 229 230 230 231 231 231 231 231 231 232 233 233 233 233 233 234 234 234 235 236 238 241 244 246 247 249 250 252 255 257 259 261 263 265 268 270 272 274 276 278 279 280 280 279 279 280 282 286 290 288 282 275 275 278 283 286 290 293 294 295 298 301 304 307 308
202 202 202 204 207 208 211 215 217 219 222 224 226 227 228 229 229 229 229 230 231 231 232 233 234 234 235 235 235 235 236 236 237 238 239 240 241 241 241 241 242 244 246 248 250 251 253 255 256 257 259 262 264 267 269 271 272 273 275 275 275 275 275 275 277 280 283 288 288 283 276 274 278 282 285 288 291 292 294 297 301 303 305 306 308
196 196 198 201 204 206 209 212 214 217 219 222 223 224 226 228 230 231 231 232 233 234 235 236 237 236 236 236 235 235 236 237 239 241 242 244 245 245 246 247 247 248 250 251 253 254 256 257 258 259 260 262 264 265 268 269 270 271 271 272 271 272 273 274 277 279 284 287 285 278 275 278 281 284 287 289 291 294 297 300 302 304 305 307 309
192 193 196 200 205 209 212 214 215 215 216 218 219 219 222 226 228 229 230 231 233 234 235 236 237 236 235 234 234 236 236 237 239 241 243 245 247 248 250 252 252 253 254 255 255 256 256 257 259 260 262 263 265 267 269 271 271 271 271 271 270 268 269 270 272 276 281 284 280 275 276 280 282 285 288 290 293 296 299 301 302 304 306 308 310
192 194 197 203 208 209 208 207 207 207 208 209 209 211 215 219 221 224 226 227 229 232 234 235 236 236 235 233 234 236 236 237 239 242 244 246 248 250 252 254 255 256 256 256 255 255 256 258 260 262 263 265 266 268 270 270 268 266 264 265 265 265 264 266 269 274 278 278 275 274 278 281 283 286 290 293 295 297 299 300 302 304 306 308 312
191 193 195 198 200 201 201 199 199 203 207 207 208 211 215 218 220 222 223 224 225 226 229 232 233 235 235 234 234 237 239 239 240 242 244 246 248 250 251 253 254 255 255 256 255 255 255 256 258 261 264 264 262 264 266 268 267 264 260 259 261 263 264 267 270 272 273 272 273 276 280 282 285 289 292 294 296 297 298 300 302 304 306 309 313
189 190 194 196 196 198 202 203 204 207 209 210 211 214 216 218 220 221 222 222 222 222 225 227 229 231 233 234 235 237 238 238 238 239 239 241 243 245 247 249 250 252 254 255 257 258 257 257 256 255 252 250 250 253 259 264 268 269 265 261 262 264 265 267 268 269 270 272 275 279 282 285 288 291 293 294 295 296 298 300 302 304 307 310 314
189 192 202 211 211 208 208 209 210 210 211 215 218 220 221 222 222 222 221 221 221 221 223 225 227 230 232 233 235 237 237 238 239 239 240 242 242 242 244 245 246 247 247 247 249 251 250 251 256 256 251 248 250 255 260 264 267 268 267 265 266 266 266 266 267 268 271 274 278 281 284 287 289 291 293 294 295 297 299 300 303 305 309 312 315
193 199 210 215 212 208 207 209 211 212 215 221 226 227 227 227 225 223 222 223 223 224 225 226 228 230 233 234 237 239 241 242 243 244 245 246 246 246 245 243 242 243 240 235 236 239 234 231 239 252 260 262 262 262 263 263 263 264 267 269 269 268 267 267 268 271 274 277 280 283 285 288 290 291 292 294 295 297 300 302 304 308 311 314 316
200 205 213 214 210 208 209 211 214 216 219 225 229 231 230 229 228 227 227 227 226 225 226 228 231 233 235 238 241 245 247 248 249 250 250 250 250 248 242 237 238 243 242 237 234 235 231 226 226 232 243 252 255 256 258 258 259 265 270 271 270 268 268 268 270 273 276 279 281 284 286 288 289 290 292 294 296 298 301 303 306 309 311 314 317
208 211 215 215 213 213 215 218 221 224 226 229 232 233 233 232 231 231 230 229 227 226 226 228 231 234 237 241 245 249 250 251 250 250 250 250 250 248 240 229 227 234 240 241 236 227 223 225 227 230 238 246 251 252 255 258 262 268 270 268 266 266 267 269 272 275 278 280 282 284 286 287 288 290 293 295 297 299 302 304 307 310 312 315 317
209 212 214 215 216 218 221 223 225 228 231 232 233 234 234 233 231 230 230 229 228 227 227 228 231 234 237 240 243 244 246 247 246 245 244 245 248 250 244 230 224 228 235 239 235 227 223 227 234 241 248 254 255 254 256 260 263 266 265 263 263 265 267 271 274 276 278 280 282 284 285 287 289 291 294 296 298 300 303 306 309 312 314 315 316
207 211 213 215 218 220 223 224 225 228 230 232 232 232 232 231 230 229 230 230 230 230 230 231 233 236 237 239 240 241 241 243 243 242 240 241 244 247 246 239 233 232 233 233 231 229 230 234 241 247 253 257 256 256 259 262 263 262 261 262 264 267 269 272 275 276 278 281 283 284 286 288 290 292 295 297 299 302 304 308 310 312 313 313 314
204 209 212 214 214 216 220 222 224 225 225 226 228 229 230 232 232 232 232 232 231 232 234 235 236 237 238 239 239 238 237 238 240 240 239 238 238 239 239 238 235 231 228 227 229 233 237 240 243 247 251 255 257 259 260 261 261 260 260 263 266 268 271 273 276 278 280 282 283 285 287 289 291 294 296 298 300 303 306 309 310 310 309 309 309
204 210 213 211 210 212 215 218 219 220 221 222 224 226 228 231 232 233 234 234 234 235 236 237 238 238 236 236 236 233 230 230 234 237 238 238 238 237 236 235 233 230 227 227 230 235 240 244 248 251 254 257 258 259 258 258 258 259 261 264 267 269 272 274 276 278 280 281 283 285 288 290 292 294 296 299 302 305 306 307 307 306 306 305 306
196 203 205 205 207 211 213 214 215 216 219 221 222 223 224 226 228 229 231 233 234 235 235 235 233 231 231 231 230 228 226 228 233 237 237 236 236 238 240 239 237 234 233 234 237 241 245 248 251 253 255 255 255 254 254 255 257 260 263 266 268 271 273 274 276 278 280 282 284 286 288 290 292 295 298 301 303 304 304 303 302 301 300 301 302
185 191 196 200 204 208 212 214 214 215 218 221 222 222 222 224 225 227 228 228 229 229 228 227 226 226 225 226 225 224 225 229 233 235 235 234 234 235 239 240 239 238 241 245 248 248 248 250 252 253 253 252 252 252 254 256 259 261 264 266 268 270 273 275 277 280 282 284 286 288 290 292 295 298 300 301 302 301 300 299 298 297 296 295 298
191 192 196 199 199 203 210 215 215 214 215 217 217 219 221 221 222 226 230 230 227 224 221 220 221 223 222 221 222 224 228 234 237 235 234 234 234 234 235 239 241 244 248 251 251 250 249 251 253 254 254 254 254 255 257 259 261 263 266 268 270 273 276 278 280 283 284 286 289 291 293 296 298 299 300 299 298 297 296 296 296 295 294 293 294
196 201 202 201 200 203 209 213 215 214 214 213 214 216 218 214 213 220 229 233 229 223 219 216 217 221 222 222 225 229 233 236 236 234 234 236 237 238 239 242 246 249 252 253 253 253 253 254 255 255 254 255 256 258 260 263 266 268 271 273 275 278 280 282 283 285 287 290 292 294 296 297 298 298 297 296 295 294 293 293 294 294 294 294 294
193 203 206 205 206 205 206 211 216 217 216 215 215 217 219 216 215 220 227 231 228 224 221 218 218 222 226 230 234 237 238 237 235 234 236 239 241 241 243 245 247 250 253 255 256 257 256 255 255 255 255 256 259 262 265 267 270 272 274 276 279 281 283 285 287 289 291 293 295 295 295 296 295 295 295 294 293 292 291 291 291 292 292 293 293
210 221 222 220 218 214 213 218 224 226 224 223 222 222 223 223 223 225 227 228 226 224 224 225 225 227 230 234 237 239 241 241 239 238 240 242 242 241 242 245 248 250 254 256 256 256 255 255 256 257 259 261 264 266 268 270 272 274 276 278 280 282 284 286 288 290 292 293 293 293 293 293 293 293 292 292 291 291 290 289 288 288 288 289 290
239 247 247 243 243 241 240 241 245 245 241 237 235 234 233 232 231 231 230 230 229 228 229 231 232 231 232 234 235 237 239 241 240 240 240 240 242 243 246 250 253 254 254 254 254 254 255 256 257 260 262 264 265 267 268 270 272 274 276 278 280 282 284 286 287 289 289 290 289 289 289 290 290 289 288 288 288 288 287 287 286 286 285 286 288
248 253 257 258 255 251 249 252 255 254 250 246 243 244 244 243 242 240 238 236 235 234 234 235 235 233 232 233 234 235 237 239 240 241 242 244 246 249 252 253 254 254 252 251 252 253 255 257 259 261 262 263 265 266 268 270 272 275 277 279 281 283 284 286 286 287 286 286 285 285 285 284 284 283 283 283 283 284 283 283 283 283 283 283 285
251 251 254 258 259 257 256 256 256 255 254 252 249 246 245 246 247 246 243 240 240 240 240 239 238 235 235 236 237 237 238 239 240 242 245 248 250 251 252 251 251 251 250 251 253 255 257 259 261 262 264 266 268 270 272 274 276 278 280 281 283 284 284 285 285 285 285 284 283 283 282 281 280 280 280 281 282 282 282 282 280 280 281 282 283
252 252 254 256 256 255 255 257 256 255 255 255 254 250 247 245 245 245 242 240 239 240 240 241 241 240 239 240 241 241 240 240 240 242 244 246 247 247 247 247 248 249 250 252 254 255 258 260 262 264 266 268 271 273 275 277 279 281 282 282 283 284 284 285 284 284 283 283 282 281 281 280 279 279 280 281 282 283 283 283 283 282 282 282 283
Height
3181 3184 3186 3188 3191 3193 3196 3198 3200 3202 3204 3205 3207 3210 3212 3214 3216 3217 3219 3220 3222 3224 3225 3227 3229 3230 3232 3232 3233 3234 3235 3236 3236 3237 3238 3239 3240 3241 3241 3242 3243 3244 3245 3246 3246 3247 3248 3249 3249 3249 3249 3250 3250 3251 3252 3252 3252 3252 3252 3252 3252 3252 3252 3252 3253 3253 3252 3251 3250 3250 3249 3249 3248 3247 3246 3246 3244 3243 3243 3242 3240 3239 3238 3236 3235
3178 3181 3183 3186 3188 3191 3193 3195 3197 3199 3201 3203 3205 3207 3209 3211 3213 3214 3216 3218 3220 3221 3223 3225 3227 3228 3230 3230 3232 3233 3233 3234 3234 3235 3236 3237 3238 3239 3239 3240 3242 3242 3243 3244 3245 3246 3247 3248 3248 3248 3248 3249 3249 3250 3251 3251 3251 3251 3251 3251 3251 3251 3251 3251 3251 3252 3252 3251 3250 3250 3249 3248 3247 3247 3245 3244 3243 3242 3240 3240 3239 3237 3236 3235 3233
3176 3178 3180 3183 3186 3188 3190 3192 3195 3197 3199 3201 3203 3205 3207 3209 3210 3212 3214 3216 3217 3219 3221 3223 3224 3226 3227 3228 3230 3231 3231 3232 3233 3233 3234 3235 3236 3237 3238 3239 3240 3241 3242 3243 3243 3244 3245 3246 3247 3247 3247 3248 3248 3249 3250 3250 3250 3250 3250 3251 3251 3250 3250 3250 3250 3250 3251 3251 3250 3249 3248 3247 3246 3246 3244 3243 3242 3240 3238 3237 3236 3235 3233 3232 3231
3173 3175 3178 3180 3183 3185 3187 3189 3192 3194 3196 3198 3200 3203 3205 3206 3208 3210 3212 3213 3215 3217 3219 3221 3222 3224 3225 3226 3228 3229 3230 3231 3231 3231 3232 3233 3234 3235 3236 3237 3238 3239 3240 3241 3242 3242 3244 3245 3245 3246 3246 3246 3247 3248 3248 3249 3249 3249 3249 3249 3250 3249 3249 3249 3249 3249 3249 3249 3249 3248 3247 3246 3245 3245 3243 3241 3240 3239 3237 3236 3234 3233 3231 3230 3227
3170 3172 3175 3177 3180 3182 3184 3186 3189 3191 3193 3196 3198 3201 3202 3204 3206 3208 3210 3211 3213 3215 3217 3218 3220 3222 3223 3224 3226 3227 3228 3229 3229 3230 3231 3231 3232 3233 3234 3235 3236 3237 3238 3239 3240 3241 3242 3243 3244 3244 3244 3245 3246 3246 3247 3248 3248 3248 3248 3248 3248 3248 3247 3247 3247 3247 3247 3247 3247 3247 3246 3245 3244 3243 3242 3239 3238 3236 3235 3233 3232 3230 3229 3228 3226
3167 3169 3172 3174 3176 3179 3181 3183 3186 3188 3191 3193 3196 3198 3200 3201 3203 3205 3207 3209 3211 3212 3214 3216 3218 3219 3221 3222 3223 3225 3225 3226 3227 3228 3229 3229 3230 3231 3232 3233 3234 3235 3236 3237 3238 3239 3240 3241 3242 3242 3243 3243 3244 3245 3245 3246 3246 3246 3246 3246 3246 3246 3246 3245 3245 3245 3244 3244 3244 3244 3244 3243 3241 3240 3239 3237 3236 3234 3233 3231 3228 3227 3226 3225 3224
3165 3167 3169 3171 3173 3176 3178 3180 3183 3186 3188 3190 3193 3195 3197 3199 3201 3203 3205 3207 3208 3210 3212 3214 3215 3217 3218 3219 3221 3222 3223 3224 3225 3226 3227 3227 3228 3229 3230 3232 3232 3233 3234 3235 3236 3237 3238 3239 3240 3241 3241 3242 3242 3243 3243 3244 3244 3245 3244 3244 3244 3244 3244 3244 3243 3243 3242 3242 3241 3241 3241 3240 3239 3237 3236 3235 3233 3232 3231 3229 3226 3225 3223 3221 3220
3162 3164 3166 3169 3171 3173 3176 3178 3180 3183 3186 3188 3190 3192 3194 3196 3198 3200 3202 3204 3206 3208 3210 3211 3213 3214 3216 3217 3218 3219 3220 3221 3222 3224 3225 3225 3227 3228 3229 3230 3230 3231 3232 3233 3234 3235 3236 3237 3238 3239 3239 3240 3241 3241 3241 3242 3242 3243 3243 3243 3242 3242 3242 3242 3241 3241 3240 3239 3239 3239 3238 3237 3236 3235 3233 3232 3231 3230 3228 3226 3224 3223 3222 3219 3217
3159 3161 3164 3166 3168 3171 3173 3175 3178 3180 3182 3185 3187 3189 3191 3193 3195 3197 3199 3202 3203 3205 3207 3209 3210 3212 3213 3214 3215 3216 3217 3218 3219 3221 3223 3224 3225 3226 3227 3228 3228 3229 3230 3231 3232 3233 3234 3235 3236 3237 3237 3238 3239 3239 3240 3241 3241 3241 3241 3241 3241 3240 3240 3240 3239 3239 3238 3238 3237 3237 3235 3234 3234 3232 3230 3229 3227 3226 3225 3223 3221 3220 3218 3216 3214
3157 3159 3161 3163 3165 3168 3170 3172 3175 3177 3179 3182 3184 3186 3188 3190 3192 3194 3197 3199 3201 3202 3204 3206 3207 3209 3210 3211 3212 3213 3214 3215 3217 3219 3221 3222 3223 3223 3224 3225 3226 3227 3228 3229 3230 3231 3232 3233 3234 3235 3236 3236 3237 3238 3239 3239 3239 3240 3239 3239 3239 3238 3238 3238 3238 3237 3236 3236 3235 3234 3233 3232 3231 3230 3227 3226 3225 3223 3222 3220 3218 3217 3215 3212 3211
3154 3156 3158 3160 3162 3165 3167 3170 3172 3174 3176 3179 3181 3183 3186 3188 3190 3192 3194 3196 3198 3200 3201 3203 3204 3206 3207 3208 3210 3210 3212 3213 3215 3217 3218 3219 3220 3221 3222 3223 3224 3225 3226 3227 3228 3229 3231 3232 3233 3233 3234 3235 3236 3237 3237 3237 3238 3238 3238 3237 3237 3236 3236 3236 3235 3235 3234 3233 3233 3232 3231 3230 3229 3227 3225 3224 3223 3221 3219 3217 3215 3214 3211 3209 3207
3152 3154 3155 3157 3159 3162 3165 3167 3169 3171 3173 3176 3178 3181 3183 3185 3187 3189 3191 3193 3195 3197 3198 3200 3201 3203 3204 3205 3207 3208 3209 3210 3212 3214 3216 3217 3218 3219 3220 3221 3221 3222 3224 3225 3226 3228 3229 3230 3231 3232 3233 3234 3234 3235 3235 3236 3236 3236 3236 3235 3235 3235 3234 3233 3233 3233 3232 3231 3230 3230 3229 3228 3226 3225 3223 3221 3220 3218 3217 3215 3212 3210 3208 3205 3203
3149 3151 3153 3154 3157 3159 3162 3164 3166 3168 3171 3173 3175 3177 3179 3182 3184 3186 3188 3190 3192 3193 3195 3197 3198 3200 3201 3202 3204 3205 3206 3208 3210 3212 3213 3214 3215 3216 3217 3218 3219 3220 3221 3223 3224 3225 3227 3228 3229 3230 3231 3232 3232 3233 3234 3234 3234 3234 3233 3233 3233 3233 3232 3231 3231 3230 3230 3229 3228 3227 3226 3225 3223 3221 3220 3219 3217 3215 3213 3211 3209 3207 3204 3202 3200
3145 3147 3150 3152 3154 3157 3159 3161 3164 3166 3168 3170 3172 3174 3176 3179 3181 3183 3185 3187 3188 3190 3192 3193 3195 3197 3198 3200 3201 3203 3204 3205 3207 3209 3210 3212 3213 3214 3215 3216 3217 3218 3219 3221 3222 3223 3225 3226 3227 3228 3229 3229 3230 3231 3232 3232 3231 3231 3231 3231 3231 3231 3230 3229 3229 3229 3228 3227 3226 3224 3223 3222 3219 3218 3217 3216 3214 3212 3210 3208 3206 3204 3202 3200 3197
3141 3144 3147 3150 3152 3154 3156 3159 3161 3163 3165 3167 3169 3171 3173 3175 3178 3180 3182 3183 3185 3187 3189 3190 3192 3193 3195 3197 3198 3200 3201 3203 3204 3206 3208 3209 3210 3211 3212 3213 3214 3215 3217 3218 3219 3221 3222 3223 3225 3226 3227 3227 3228 3229 3229 3229 3229 3228 3228 3228 3228 3228 3228 3228 3227 3227 3225 3224 3223 3221 3220 3218 3216 3214 3213 3212 3211 3209 3206 3204 3203 3202 3200 3198 3196
3138 3141 3144 3147 3150 3152 3154 3156 3158 3160 3162 3164 3166 3168 3170 3172 3174 3176 3178 3180 3182 3184 3186 3187 3189 3190 3192 3194 3195 3197 3199 3200 3202 3203 3205 3206 3207 3208 3209 3210 3211 3212 3214 3215 3217 3218 3219 3221 3222 3223 3224 3225 3226 3227 3227 3227 3226 3225 3225 3225 3225 3225 3225 3225 3225 3224 3223 3222 3220 3219 3217 3215 3213 3211 3210 3208 3207 3205 3203 3201 3200 3198 3196 3194 3194
3135 3138 3141 3144 3147 3149 3151 3153 3155 3157 3159 3161 3163 3165 3167 3169 3171 3173 3175 3177 3178 3180 3183 3184 3186 3188 3190 3191 3192 3194 3196 3198 3199 3201 3202 3203 3204 3205 3206 3207 3208 3210 3211 3213 3214 3215 3217 3218 3219 3221 3222 3223 3224 3225 3225 3224 3223 3222 3223 3223 3223 3223 3222 3222 3222 3221 3220 3219 3218 3216 3215 3212 3211 3209 3207 3205 3203 3201 3199 3198 3197 3195 3192 3190 3189
3132 3135 3139 3142 3144 3147 3149 3150 3152 3154 3156 3158 3160 3162 3164 3166 3168 3170 3172 3174 3176 3178 3180 3182 3183 3185 3187 3188 3189 3192 3194 3195 3196 3198 3199 3200 3201 3202 3203 3204 3205 3207 3208 3210 3211 3212 3214 3215 3217 3218 3219 3220 3222 3222 3222 3221 3221 3220 3220 3220 3220 3220 3220 3219 3219 3218 3216 3215 3214 3213 3211 3210 3208 3207 3204 3202 3200 3198 3196 3195 3194 3191 3189 3187 3185
3129 3133 3136 3139 3142 3144 3146 3148 3150 3152 3154 3156 3158 3160 3162 3164 3166 3168 3170 3171 3173 3175 3177 3179 3180 3182 3183 3185 3186 3189 3191 3192 3193 3195 3196 3198 3199 3199 3200 3201 3202 3203 3205 3207 3208 3209 3211 3212 3213 3215 3216 3218 3219 3220 3219 3219 3218 3218 3218 3218 3218 3217 3218 3217 3216 3215 3214 3212 3211 3209 3208 3207 3205 3203 3201 3200 3198 3195 3193 3192 3191 3189 3186 3184 3182
3127 3131 3133 3136 3139 3141 3143 3146 3147 3149 3151 3153 3155 3157 3159 3161 3163 3165 3167 3168 3170 3172 3174 3176 3177 3179 3180 3181 3183 3185 3187 3188 3190 3192 3193 3195 3196 3196 3197 3197 3198 3201 3203 3204 3205 3206 3208 3209 3210 3212 3213 3214 3215 3216 3217 3216 3215 3215 3216 3216 3215 3215 3215 3214 3213 3212 3211 3210 3208 3207 3205 3204 3202 3200 3198 3196 3194 3192 3191 3189 3187 3186 3183 3181 3179
3125 3128 3130 3134 3136 3139 3141 3143 3145 3147 3149 3151 3153 3154 3156 3158 3160 3162 3164 3165 3167 3169 3171 3172 3174 3175 3177 3178 3180 3182 3183 3185 3186 3188 3190 3191 3192 3193 3193 3194 3196 3198 3200 3201 3202 3203 3204 3205 3207 3209 3210 3211 3212 3213 3213 3213 3213 3213 3213 3213 3213 3213 3211 3210 3210 3209 3208 3206 3205 3203 3202 3200 3198 3196 3194 3192 3190 3189 3187 3186 3184 3183 3180 3177 3174
3122 3125 3128 3131 3134 3136 3138 3140 3142 3144 3146 3148 3150 3152 3154 3155 3157 3159 3161 3163 3164 3166 3167 3169 3171 3172 3174 3175 3176 3178 3180 3181 3183 3185 3186 3188 3188 3189 3190 3191 3193 3195 3196 3197 3198 3199 3200 3202 3203 3205 3206 3207 3208 3209 3209 3210 3210 3210 3210 3210 3210 3209 3207 3207 3206 3205 3204 3202 3201 3199 3198 3196 3195 3193 3191 3189 3188 3186 3185 3183 3182 3180 3178 3176 3172
3120 3122 3126 3129 3131 3133 3135 3137 3139 3141 3143 3145 3147 3149 3151 3152 3154 3156 3158 3160 3161 3163 3164 3166 3168 3169 3170 3172 3173 3174 3176 3178 3179 3181 3183 3184 3185 3186 3187 3188 3189 3191 3192 3193 3194 3196 3197 3199 3200 3201 3202 3203 3204 3205 3206 3206 3206 3206 3206 3206 3206 3205 3204 3203 3202 3201 3199 3198 3197 3196 3194 3192 3191 3189 3187 3186 3184 3184 3183 3181 3179 3178 3176 3175 3172
3117 3120 3123 3126 3129 3131 3132 3134 3136 3138 3140 3142 3144 3146 3148 3150 3151 3153 3155 3156 3158 3159 3161 3163 3164 3166 3167 3168 3169 3171 3172 3174 3176 3177 3179 3180 3182 3183 3184 3185 3186 3187 3188 3190 3191 3193 3194 3195 3196 3197 3199 3200 3201 3202 3202 3202 3202 3202 3202 3201 3201 3201 3201 3199 3198 3196 3195 3194 3193 3191 3190 3188 3187 3185 3184 3182 3181 3181 3181 3179 3177 3175 3174 3173 3171
3114 3118 3120 3123 3126 3128 3130 3131 3133 3135 3137 3139 3141 3143 3145 3146 3148 3150 3151 3153 3154 3156 3158 3159 3161 3162 3164 3165 3167 3168 3170 3171 3173 3174 3176 3177 3178 3180 3181 3181 3182 3184 3185 3186 3188 3189 3190 3191 3192 3194 3196 3197 3197 3198 3198 3198 3198 3198 3198 3197 3197 3197 3196 3195 3193 3192 3191 3190 3189 3187 3185 3184 3183 3182 3181 3180 3178 3178 3178 3176 3174 3172 3170 3169 3168
3112 3115 3117 3120 3123 3125 3127 3129 3131 3133 3134 3136 3138 3140 3142 3143 3145 3147 3148 3150 3151 3153 3155 3156 3157 3159 3161 3162 3164 3166 3167 3168 3170 3171 3172 3174 3175 3176 3177 3178 3179 3180 3181 3182 3184 3185 3186 3188 3190 3191 3192 3193 3194 3194 3194 3194 3194 3194 3194 3193 3192 3191 3191 3190 3189 3188 3187 3186 3184 3183 3182 3180 3180 3179 3178 3177 3176 3174 3174 3173 3171 3169 3167 3165 3164
3110 3112 3115 3118 3120 3123 3125 3126 3128 3130 3132 3134 3135 3137 3139 3140 3142 3144 3146 3147 3148 3150 3152 3153 3154 3156 3158 3159 3161 3163 3164 3165 3166 3168 3169 3170 3171 3173 3174 3175 3176 3177 3178 3179 3180 3181 3183 3185 3187 3188 3188 3189 3189 3190 3190 3190 3190 3190 3189 3188 3187 3186 3185 3185 3184 3183 3183 3182 3180 3179 3178 3177 3177 3176 3175 3174 3172 3171 3170 3169 3167 3166 3164 3161 3159
3108 3111 3114 3116 3118 3120 3122 3124 3126 3128 3129 3131 3133 3134 3136 3137 3139 3141 3143 3144 3146 3148 3149 3150 3152 3153 3155 3157 3159 3160 3160 3161 3163 3164 3165 3167 3168 3169 3170 3172 3173 3174 3175 3176 3177 3179 3180 3182 3183 3184 3184 3185 3185 3185 3185 3185 3185 3184 3184 3183 3182 3181 3180 3180 3179 3179 3178 3178 3177 3176 3175 3174 3173 3173 3172 3171 3169 3168 3166 3165 3163 3161 3159 3157 3155
3106 3109 3111 3114 3116 3118 3120 3122 3123 3125 3127 3128 3130 3132 3133 3135 3137 3139 3140 3142 3144 3145 3147 3148 3149 3151 3153 3155 3155 3156 3157 3158 3160 3161 3162 3164 3165 3166 3167 3168 3169 3171 3172 3173 3174 3176 3177 3178 3179 3179 3180 3180 3180 3180 3180 3180 3179 3179 3179 3178 3178 3177 3177 3176 3175 3175 3174 3174 3173 3172 3171 3171 3170 3169 3168 3167 3165 3164 3162 3161 3159 3157 3155 3153 3150
3103 3106 3109 3111 3113 3115 3117 3119 3121 3123 3124 3126 3127 3129 3131 3133 3134 3136 3138 3139 3141 3143 3144 3145 3147 3149 3150 3151 3152 3153 3154 3155 3156 3158 3159 3160 3161 3162 3163 3164 3166 3167 3168 3170 3171 3172 3173 3173 3174 3174 3175 3175 3175 3175 3175 3175 3175 3175 3175 3174 3174 3174 3173 3173 3172 3171 3171 3170 3169 3169 3168 3167 3166 3165 3164 3163 3161 3160 3158 3156 3155 3153 3151 3148 3146
3101 3104 3107 3109 3111 3113 3115 3117 3119 3121 3122 3124 3126 3128 3129 3131 3132 3134 3135 3137 3139 3140 3142 3143 3144 3146 3147 3148 3149 3150 3151 3152 3153 3154 3155 3156 3157 3158 3159 3161 3162 3163 3164 3166 3166 3167 3168 3168 3169 3169 3170 3170 3170 3171 3171 3170 3170 3171 3171 3171 3171 3170 3170 3169 3168 3167 3167 3166 3166 3165 3164 3163 3162 3161 3160 3159 3158 3156 3154 3153 3151 3149 3147 3144 3141
3099 3102 3104 3106 3109 3112 3114 3115 3117 3119 3121 3122 3124 3126 3127 3128 3130 3131 3133 3134 3136 3138 3139 3140 3141 3142 3143 3145 3146 3147 3148 3149 3150 3151 3152 3153 3154 3155 3156 3157 3159 3160 3161 3161 3162 3162 3163 3163 3164 3164 3165 3165 3165 3166 3166 3166 3167 3167 3167 3167 3166 3166 3165 3165 3164 3164 3163 3163 3162 3161 3160 3159 3158 3157 3156 3155 3154 3152 3151 3149 3147 3145 3143 3141 3137
3097 3099 3101 3104 3107 3109 3112 3114 3116 3117 3119 3121 3122 3124 3125 3126 3127 3129 3130 3132 3133 3135 3136 3137 3138 3139 3140 3142 3143 3145 3146 3146 3147 3148 3149 3150 3151 3152 3153 3154 3155 3156 3157 3158 3158 3158 3159 3160 3160 3160 3161 3161 3161 3161 3162 3162 3163 3163 3163 3162 3162 3161 3161 3161 3160 3160 3159 3159 3158 3157 3156 3155 3154 3153 3152 3151 3149 3148 3146 3145 3143 3141 3139 3136 3133
3095 3098 3100 3102 3104 3107 3110 3112 3114 3115 3117 3118 3120 3121 3123 3124 3125 3126 3128 3129 3130 3132 3133 3134 3135 3136 3137 3139 3140 3142 3143 3143 3144 3145 3146 3146 3147 3148 3149 3150 3151 3152 3152 3153 3154 3155 3156 3156 3156 3157 3158 3159 3158 3158 3158 3158 3159 3159 3159 3158 3158 3157 3157 3157 3156 3156 3156 3155 3154 3153 3152 3151 3150 3149 3147 3146 3145 3143 3142 3140 3138 3136 3134 3131 3129
3092 3096 3099 3101 3102 3104 3107 3109 3111 3112 3114 3115 3117 3118 3119 3121 3122 3123 3124 3125 3127 3128 3129 3131 3132 3133 3134 3136 3137 3138 3139 3140 3141 3142 3142 3143 3143 3144 3145 3146 3147 3147 3148 3149 3150 3150 3150 3151 3151 3153 3155 3156 3156 3155 3155 3155 3155 3155 3155 3154 3154 3153 3153 3153 3153 3152 3152 3151 3150 3149 3148 3146 3145 3144 3143 3142 3140 3139 3137 3135 3133 3130 3128 3126 3124
3090 3093 3096 3098 3100 3102 3104 3106 3107 3108 3110 3112 3113 3114 3116 3117 3118 3120 3121 3122 3124 3125 3126 3127 3128 3130 3131 3133 3134 3135 3136 3137 3137 3138 3138 3139 3139 3139 3140 3141 3142 3143 3144 3145 3146 3146 3146 3146 3147 3148 3149 3150 3151 3151 3151 3151 3151 3151 3151 3150 3150 3149 3149 3149 3149 3148 3148 3147 3146 3145 3144 3142 3141 3140 3139 3137 3136 3134 3132 3130 3128 3126 3124 3122 3120
3087 3090 3093 3095 3097 3099 3100 3102 3103 3104 3106 3108 3109 3111 3112 3114 3115 3117 3118 3119 3120 3122 3123 3124 3125 3126 3128 3129 3130 3131 3133 3133 3134 3134 3134 3134 3134 3135 3136 3137 3138 3139 3140 3141 3142 3143 3144 3144 3144 3145 3145 3146 3146 3147 3148 3148 3147 3147 3147 3146 3146 3146 3146 3145 3145 3144 3144 3143 3142 3141 3140 3138 3137 3136 3134 3132 3131 3129 3128 3126 3124 3122 3120 3118 3116
3082 3086 3089 3091 3093 3095 3096 3098 3099 3100 3102 3103 3105 3107 3108 3110 3111 3113 3114 3116 3117 3118 3119 3120 3122 3123 3124 3125 3126 3128 3129 3129 3129 3129 3130 3130 3130 3131 3132 3133 3134 3135 3136 3136 3137 3138 3139 3140 3141 3142 3142 3143 3143 3144 3144 3144 3144 3143 3143 3143 3143 3142 3142 3142 3141 3141 3140 3139 3138 3137 3136 3134 3133 3131 3129 3128 3126 3124 3123 3121 3119 3117 3115 3113 3112
3077 3081 3084 3087 3089 3091 3092 3093 3094 3096 3097 3099 3100 3102 3104 3106 3107 3109 3110 3112 3113 3114 3115 3116 3117 3118 3120 3121 3122 3123 3124 3124 3125 3125 3126 3126 3127 3127 3128 3129 3130 3131 3132 3132 3133 3134 3135 3136 3137 3138 3139 3139 3140 3140 3140 3140 3140 3140 3139 3139 3139 3139 3138 3138 3137 3137 3136 3134 3133 3132 3131 3129 3128 3126 3125 3123 3122 3120 3118 3117 3115 3113 3111 3110 3108
3074 3078 3081 3084 3086 3087 3088 3089 3090 3091 3093 3094 3096 3098 3099 3101 3103 3105 3106 3108 3109 3110 3111 3112 3113 3115 3116 3117 3118 3119 3119 3120 3121 3121 3122 3122 3123 3124 3124 3125 3126 3127 3128 3129 3130 3131 3131 3132 3133 3134 3135 3135 3136 3136 3136 3136 3136 3135 3135 3135 3135 3134 3134 3133 3133 3132 3131 3130 3129 3127 3126 3124 3123 3121 3120 3118 3117 3116 3114 3113 3111 3110 3108 3106 3105
3071 3076 3079 3081 3083 3084 3084 3085 3086 3088 3089 3091 3092 3094 3096 3097 3099 3101 3102 3103 3105 3106 3107 3109 3110 3111 3112 3112 3113 3114 3115 3116 3116 3117 3118 3119 3119 3120 3121 3122 3123 3124 3125 3126 3127 3128 3128 3129 3130 3130 3131 3131 3131 3131 3131 3131 3131 3131 3131 3131 3130 3130 3129 3129 3128 3127 3126 3125 3124 3123 3121 3120 3118 3117 3115 3114 3113 3112 3111 3109 3108 3106 3104 3103 3101
3068 3072 3076 3078 3080 3081 3082 3082 3083 3084 3086 3087 3089 3091 3092 3094 3095 3097 3098 3100 3101 3103 3104 3106 3107 3107 3107 3108 3109 3110 3111 3112 3112 3113 3114 3115 3116 3117 3118 3119 3120 3122 3123 3123 3124 3125 3125 3126 3127 3127 3127 3127 3127 3127 3127 3127 3127 3127 3127 3126 3126 3125 3124 3124 3123 3122 3121 3120 3119 3118 3116 3115 3114 3113 3111 3110 3109 3108 3106 3105 3104 3103 3101 3099 3098
3065 3069 3072 3074 3076 3077 3078 3079 3080 3082 3083 3085 3087 3088 3089 3091 3092 3093 3094 3096 3097 3099 3100 3102 3102 3103 3104 3104 3105 3106 3107 3108 3109 3110 3111 3112 3113 3114 3115 3115 3117 3118 3119 3120 3120 3121 3122 3122 3122 3123 3123 3123 3123 3123 3123 3123 3123 3123 3122 3122 3121 3120 3119 3118 3117 3116 3115 3114 3114 3113 3111 3110 3110 3108 3107 3106 3105 3104 3102 3101 3100 3099 3098 3096 3094
3066 3068 3071 3072 3073 3074 3075 3076 3077 3079 3081 3082 3084 3085 3087 3088 3089 3091 3092 3093 3094 3095 3097 3098 3098 3099 3100 3101 3102 3103 3104 3105 3106 3107 3108 3109 3109 3111 3112 3112 3113 3115 3116 3116 3116 3117 3117 3117 3118 3118 3118 3118 3118 3118 3119 3119 3118 3118 3118 3117 3116 3115 3114 3113 3112 3111 3110 3109 3109 3107 3106 3105 3105 3104 3103 3101 3100 3099 3098 3097 3095 3094 3094 3093 3092
3067 3069 3070 3070 3070 3070 3071 3073 3075 3077 3078 3079 3081 3082 3083 3085 3087 3088 3089 3090 3091 3093 3094 3095 3096 3096 3097 3098 3099 3100 3101 3102 3103 3103 3104 3105 3106 3107 3108 3109 3110 3110 3111 3112 3112 3112 3112 3113 3113 3113 3113 3114 3114 3114 3114 3114 3114 3113 3112 3112 3111 3110 3109 3108 3107 3106 3106 3105 3104 3103 3102 3100 3100 3099 3098 3097 3096 3094 3093 3092 3091 3090 3089 3089 3088
3065 3067 3068 3068 3068 3068 3070 3072 3074 3076 3076 3077 3078 3080 3081 3083 3084 3085 3086 3087 3089 3090 3091 3092 3093 3094 3094 3095 3096 3096 3097 3098 3099 3100 3101 3102 3102 3103 3104 3105 3105 3106 3107 3107 3107 3108 3108 3108 3108 3109 3109 3109 3109 3109 3109 3109 3109 3108 3107 3107 3106 3105 3104 3103 3102 3102 3101 3100 3099 3098 3097 3096 3094 3093 3092 3091 3090 3090 3089 3088 3087 3087 3086 3085 3085
3064 3065 3066 3066 3066 3067 3069 3071 3074 3075 3075 3075 3076 3077 3079 3080 3081 3082 3084 3085 3086 3087 3088 3089 3090 3091 3091 3092 3092 3093 3094 3095 3095 3096 3097 3098 3098 3099 3100 3101 3101 3102 3102 3103 3103 3103 3103 3103 3104 3104 3104 3104 3104 3104 3104 3104 3103 3103 3102 3101 3100 3100 3099 3098 3097 3097 3096 3095 3094 3093 3092 3090 3089 3088 3087 3086 3085 3084 3084 3083 3083 3082 3082 3081 3081
3062 3063 3064 3064 3065 3066 3067 3070 3072 3073 3074 3074 3074 3075 3077 3078 3079 3080 3081 3082 3083 3084 3085 3086 3087 3087 3088 3088 3089 3090 3091 3091 3092 3092 3093 3093 3094 3095 3096 3097 3097 3098 3098 3098 3098 3098 3098 3099 3099 3099 3099 3099 3099 3099 3099 3098 3098 3097 3097 3096 3096 3095 3094 3093 3093 3092 3091 3090 3089 3088 3087 3086 3085 3084 3082 3082 3081 3080 3079 3079 3078 3078 3077 3077 3077
3059 3061 3062 3063 3063 3064 3066 3067 3069 3071 3072 3072 3072 3073 3074 3075 3076 3077 3078 3079 3080 3081 3082 3082 3083 3084 3084 3085 3086 3086 3087 3088 3089 3089 3089 3090 3091 3092 3092 3092 3093 3093 3093 3093 3094 3094 3094 3094 3094 3094 3094 3094 3094 3094 3093 3093 3093 3093 3092 3091 3091 3090 3089 3088 3087 3087 3086 3085 3084 3084 3083 3082 3081 3080 3079 3078 3077 3076 3075 3075 3074 3074 3073 3073 3072
3056 3058 3059 3061 3062 3063 3064 3065 3066 3068 3069 3070 3070 3071 3072 3073 3074 3075 3076 3076 3077 3078 3078 3079 3080 3080 3081 3081 3082 3083 3084 3085 3085 3086 3086 3086 3087 3087 3088 3088 3088 3088 3089 3089 3089 3089 3090 3090 3090 3090 3089 3089 3089 3089 3088 3088 3087 3087 3087 3086 3085 3085 3084 3083 3082 3082 3081 3080 3079 3079 3078 3077 3077 3076 3075 3074 3073 3072 3072 3071 3070 3070 3069 3068 3068
3053 3055 3056 3058 3059 3061 3062 3062 3063 3064 3066 3067 3067 3068 3069 3070 3070 3071 3072 3073 3074 3074 3075 3075 3076 3076 3077 3077 3078 3079 3080 3081 3081 3082 3082 3083 3083 3083 3083 3083 3084 3084 3085 3085 3085 3085 3085 3085 3085 3085 3085 3084 3084 3084 3083 3083 3082 3082 3081 3081 3080 3079 3079 3078 3078 3077 3076 3076 3075 3074 3074 3073 3072 3072 3071 3070 3069 3069 3068 3067 3066 3065 3065 3064 3063